Location: �terpigny
(49.8910°N, 2.9249°E)
Time: 15:42:22
(UTC+00:00)

NOSS 3-1 (A) - Pass Details

Date: 24 October 2021
Orbit: 721 x 1491 km, 63.4° (Epoch: 22 November)

Event Time Altitude Azimuth Distance (km) Brightness Sun altitude
Rises 17:48:21 0° 189° (S) 3,186 6.4 -11.7°
Reaches altitude 10° 17:50:46 10° 180° (S) 2,321 5.6 -12.1°
Maximum altitude 17:55:30 34° 116° (ESE) 1,358 3.8 -12.9°
Enters shadow 17:59:58 14° 58° (ENE) 2,348 5.0 -13.6°
